GW7669 Weather Reports


time (UTC)temp
C
wind
direction
speed
KPH
gust
KPH
rain 1hr
cm
rain 24hr
cm
rain mn
cm
humidity
%
barometer
mb
20260902194613 28 345 3.2 0.0 0.00 0.00 0.00 61 1016.8
20260902193057 29 17 4.8 0.0 0.00 0.00 0.00 60 1017.0
20260902191615 29 286 4.8 0.0 0.00 0.00 0.00 62 1017.2
20260902190023 29 24 4.8 0.0 0.00 0.00 0.00 59 1017.3
20260902184505 29 315 3.2 0.0 0.00 0.00 0.00 61 1017.4
20260902183029 29 292 4.8 0.0 0.00 0.00 0.00 59 1017.5
20260902181637 28 305 4.8 0.0 0.00 0.00 0.00 61 1017.5
20260902180030 28 303 6.4 0.0 0.00 0.00 0.00 60 1017.7
20260902174503 28 294 6.4 0.0 0.00 0.00 0.00 64 1017.7
20260902173022 28 21 4.8 0.0 0.00 0.00 0.00 63 1017.8
20260902171545 28 302 6.4 0.0 0.00 0.00 0.00 62 1018.0
20260902170050 28 229 4.8 0.0 0.00 0.00 0.00 63 1018.1
20260902164606 28 232 6.4 0.0 0.00 0.00 0.00 64 1018.3
20260902163013 27 139 3.2 0.0 0.00 0.00 0.00 70 1018.4
20260902161543 27 177 4.8 0.0 0.00 0.00 0.00 69 1018.4
20260902160048 27 46 4.8 0.0 0.00 0.00 0.00 72 1018.5
20260902154606 27 21 3.2 0.0 0.00 0.00 0.00 71 1018.7
20260902153020 27 297 4.8 0.0 0.00 0.00 0.00 76 1018.6
20260902151609 26 306 6.4 0.0 0.00 0.00 0.00 74 1018.7
20260902150023 26 5 4.8 0.0 0.00 0.00 0.00 77 1018.7
20260902144550 26 355 4.8 0.0 0.00 0.00 0.00 78 1018.6
20260902143030 25 355 4.8 0.0 0.00 0.00 0.00 79 1018.6
20260902141551 25 360 4.8 0.0 0.00 0.00 0.00 81 1018.4
20260902140056 25 302 4.8 0.0 0.00 0.00 0.00 82 1018.4
20260902134504 24 294 1.6 0.0 0.00 0.00 0.00 86 1018.5
20260902133027 23 294 0.0 0.0 0.00 0.00 0.00 89 1018.6
20260902131537 22 294 0.0 0.0 0.00 0.00 0.00 89 1018.6
20260902130037 21 294 1.6 0.0 0.00 0.00 0.00 91 1018.6
20260902124535 21 295 4.8 0.0 0.00 0.00 0.00 92 1018.6
20260902123103 20 296 6.4 0.0 0.00 0.00 0.00 93 1018.6
20260902121606 20 292 4.8 0.0 0.00 0.00 0.00 94 1018.5
20260902120105 19 294 6.4 0.0 0.00 0.00 0.00 95 1018.4
20260902114612 18 289 3.2 0.0 0.00 0.00 0.00 95 1018.4
20260902113015 18 288 3.2 0.0 0.00 0.00 0.00 95 1018.2
20260902111608 18 288 4.8 0.0 0.00 0.00 0.00 95 1018.1
20260902110023 18 288 4.8 0.0 0.00 0.00 0.00 95 1017.9
20260902104537 18 288 3.2 0.0 0.00 0.00 0.00 95 1018.0
20260902103040 18 288 3.2 0.0 0.00 0.00 0.00 95 1018.0
20260902101535 18 288 3.2 0.0 0.00 0.00 0.00 95 1017.9
20260902100036 18 289 3.2 0.0 0.00 0.00 0.00 94 1017.7
20260902094530 18 290 0.0 0.0 0.00 0.00 0.00 95 1017.6
20260902093032 18 290 4.8 0.0 0.00 0.00 0.00 95 1017.6
20260902091551 18 290 4.8 0.0 0.00 0.00 0.00 94 1017.6
20260902090049 18 290 4.8 0.0 0.00 0.00 0.00 95 1017.7
20260902084607 18 290 4.8 0.0 0.00 0.00 0.00 94 1017.6
20260902083004 18 290 4.8 0.0 0.00 0.00 0.00 94 1017.6
20260902081509 19 290 4.8 0.0 0.00 0.00 0.00 93 1017.5
20260902080037 19 291 4.8 0.0 0.00 0.00 0.00 93 1017.4
20260902074609 19 289 1.6 0.0 0.00 0.00 0.00 93 1017.5
20260902073032 19 290 4.8 0.0 0.00 0.00 0.00 93 1017.5
20260902071551 20 290 3.2 0.0 0.00 0.00 0.00 92 1017.6
20260902070052 20 290 4.8 0.0 0.00 0.00 0.00 92 1017.5
20260902064610 19 290 4.8 0.0 0.00 0.00 0.00 92 1017.5
20260902063005 19 290 4.8 0.0 0.00 0.00 0.00 92 1017.5
20260902061528 20 291 3.2 0.0 0.00 0.00 0.00 92 1017.4
20260902060113 20 291 4.8 0.0 0.00 0.00 0.00 92 1017.5
20260902054537 20 291 4.8 0.0 0.00 0.00 0.00 92 1017.4
20260902053034 20 291 4.8 0.0 0.00 0.00 0.00 91 1017.4
20260902051551 20 292 4.8 0.0 0.00 0.00 0.00 92 1017.3
20260902044614 20 296 1.6 0.0 0.00 0.00 0.00 90 1017.3
20260902043100 20 300 4.8 0.0 0.00 0.00 0.00 91 1017.3
20260902043025 20 300 4.8 0.0 0.00 0.00 0.00 91 1017.3
20260902041508 20 302 3.2 0.0 0.00 0.00 0.00 90 1017.5
20260902034552 21 304 0.0 0.0 0.00 0.00 0.03 90 1017.5
20260902033003 21 304 1.6 0.0 0.00 0.00 0.03 89 1017.3
20260902031501 21 304 3.2 0.0 0.00 0.00 0.03 90 1017.4
20260902030019 21 304 1.6 0.0 0.00 0.00 0.03 90 1017.4
20260902024552 21 304 4.8 0.0 0.00 0.00 0.03 89 1017.5
20260902023043 21 305 3.2 0.0 0.00 0.00 0.03 88 1017.3
20260902021613 21 305 3.2 0.0 0.00 0.00 0.03 89 1017.3
20260902020015 21 305 3.2 0.0 0.00 0.00 0.03 88 1017.0
20260902014533 21 305 3.2 0.0 0.00 0.00 0.03 89 1016.9
20260902013030 21 305 3.2 0.0 0.00 0.00 0.03 88 1016.7
20260902011621 22 305 1.6 0.0 0.00 0.00 0.03 88 1016.4
20260902010016 22 305 0.0 0.0 0.00 0.00 0.03 88 1016.2
20260902004623 22 305 0.0 0.0 0.00 0.00 0.03 88 1016.0
20260902003001 22 305 0.0 0.0 0.00 0.00 0.03 85 1016.0
20260902001507 23 305 1.6 0.0 0.00 0.00 0.03 85 1016.0
20260902000034 24 305 1.6 0.0 0.00 0.00 0.03 81 1016.1
20260901234546 25 305 1.6 0.0 0.00 0.00 0.03 79 1016.2
20260901233050 26 305 0.0 0.0 0.00 0.00 0.03 80 1016.4
20260901231610 26 305 1.6 0.0 0.00 0.00 0.03 73 1016.5
20260901230012 27 306 3.2 0.0 0.00 0.00 0.03 72 1016.6
20260901224536 27 307 3.2 0.0 0.00 0.00 0.03 72 1016.6
20260901223037 27 309 3.2 0.0 0.00 0.00 0.03 71 1016.7
20260901221552 27 301 3.2 0.0 0.00 0.00 0.03 70 1016.5
20260901220125 28 297 4.8 0.0 0.00 0.00 0.03 66 1016.6
20260901214613 27 300 4.8 0.0 0.00 0.00 0.03 66 1016.6
20260901213100 27 5 4.8 0.0 0.00 0.00 0.03 67 1016.5
20260901211607 28 360 6.4 0.0 0.00 0.00 0.03 64 1016.5
20260901210025 28 331 4.8 0.0 0.00 0.00 0.03 65 1016.5
20260901204543 28 15 8.0 0.0 0.00 0.00 0.03 65 1016.8
20260901203038 28 332 4.8 0.0 0.00 0.00 0.03 67 1017.0
20260901201559 28 293 4.8 0.0 0.00 0.00 0.03 64 1016.9
20260901200037 28 292 4.8 0.0 0.00 0.00 0.03 69 1016.9